Time,TemperatureF,DewpointF,PressureIn,WindDirection,WindDirectionDegrees,WindSpeedMPH,WindSpeedGustMPH,Humidity,HourlyPrecipIn,Conditions,Clouds,dailyrainin,SoftwareType,DateUTC
2013-02-20 00:04:00,37.5,38.0,29.80,NE,51,5.0,-999.0,100,-99.99,,,0.00,weatherlink.com 1.10,2013-02-19 22:04:00,
2013-02-20 00:19:00,37.8,38.0,29.80,NE,56,11.0,-999.0,100,-99.99,,,0.00,weatherlink.com 1.10,2013-02-19 22:19:00,
2013-02-20 00:34:00,37.8,38.0,29.79,ENE,59,9.0,-999.0,100,-99.99,,,0.00,weatherlink.com 1.10,2013-02-19 22:34:00,
2013-02-20 00:49:00,38.0,38.0,29.79,NE,54,5.0,-999.0,100,-99.99,,,0.00,weatherlink.com 1.10,2013-02-19 22:49:00,
2013-02-20 01:04:00,38.0,38.0,29.79,NNE,30,6.0,-999.0,100,-99.99,,,0.00,weatherlink.com 1.10,2013-02-19 23:04:00,
2013-02-20 01:19:00,38.2,38.0,29.79,ENE,73,9.0,-999.0,100,-99.99,,,0.00,weatherlink.com 1.10,2013-02-19 23:19:00,
2013-02-20 01:34:00,38.3,38.0,29.78,East,82,8.0,-999.0,100,-99.99,,,0.00,weatherlink.com 1.10,2013-02-19 23:34:00,
2013-02-20 01:49:00,38.5,39.0,29.78,ENE,64,9.0,-999.0,100,-99.99,,,0.01,weatherlink.com 1.10,2013-02-19 23:49:00,
2013-02-20 02:04:00,38.6,39.0,29.78,East,96,6.0,-999.0,100,-99.99,,,0.01,weatherlink.com 1.10,2013-02-20 00:04:00,
2013-02-20 02:19:00,38.6,39.0,29.78,NE,45,5.0,-999.0,100,-99.99,,,0.02,weatherlink.com 1.10,2013-02-20 00:19:00,
2013-02-20 02:34:00,38.8,39.0,29.78,NNE,28,5.0,-999.0,100,-99.99,,,0.02,weatherlink.com 1.10,2013-02-20 00:34:00,
2013-02-20 02:49:00,38.9,39.0,29.79,NNE,25,7.0,-999.0,100,-99.99,,,0.02,weatherlink.com 1.10,2013-02-20 00:49:00,
2013-02-20 03:04:00,39.1,39.0,29.79,NNE,20,3.0,-999.0,100,-99.99,,,0.02,weatherlink.com 1.10,2013-02-20 01:04:00,
2013-02-20 03:19:00,39.1,39.0,29.79,NNE,24,10.0,-999.0,100,-99.99,,,0.02,weatherlink.com 1.10,2013-02-20 01:19:00,
2013-02-20 03:34:00,39.3,39.0,29.79,NNE,28,8.0,-999.0,100,-99.99,,,0.02,weatherlink.com 1.10,2013-02-20 01:34:00,
2013-02-20 03:50:00,39.6,40.0,29.80,NNE,27,4.0,-999.0,100,-99.99,,,0.02,weatherlink.com 1.10,2013-02-20 01:50:00,
2013-02-20 04:05:00,39.6,40.0,29.80,North,8,8.0,-999.0,100,-99.99,,,0.02,weatherlink.com 1.10,2013-02-20 02:05:00,
2013-02-20 04:20:00,39.8,40.0,29.80,NNW,346,3.0,-999.0,100,-99.99,,,0.02,weatherlink.com 1.10,2013-02-20 02:20:00,
2013-02-20 04:35:00,39.6,40.0,29.81,North,1,5.0,-999.0,100,-99.99,,,0.02,weatherlink.com 1.10,2013-02-20 02:35:00,
2013-02-20 04:50:00,39.8,40.0,29.82,North,4,3.0,-999.0,100,-99.99,,,0.02,weatherlink.com 1.10,2013-02-20 02:50:00,
2013-02-20 05:05:00,39.5,40.0,29.83,NNE,25,5.0,-999.0,100,-99.99,,,0.02,weatherlink.com 1.10,2013-02-20 03:05:00,
2013-02-20 05:20:00,39.2,39.0,29.83,North,7,12.0,-999.0,100,-99.99,,,0.02,weatherlink.com 1.10,2013-02-20 03:20:00,
2013-02-20 05:35:00,39.1,39.0,29.83,NNE,24,8.0,-999.0,100,-99.99,,,0.02,weatherlink.com 1.10,2013-02-20 03:35:00,
2013-02-20 05:50:00,38.8,39.0,29.84,NNE,25,7.0,-999.0,100,-99.99,,,0.02,weatherlink.com 1.10,2013-02-20 03:50:00,
2013-02-20 06:05:00,38.6,39.0,29.85,North,8,10.0,-999.0,100,-99.99,,,0.02,weatherlink.com 1.10,2013-02-20 04:05:00,
2013-02-20 06:20:00,38.6,39.0,29.85,North,4,5.0,-999.0,100,-99.99,,,0.02,weatherlink.com 1.10,2013-02-20 04:20:00,
2013-02-20 06:35:00,38.6,39.0,29.86,North,359,5.0,-999.0,100,-99.99,,,0.02,weatherlink.com 1.10,2013-02-20 04:35:00,
2013-02-20 06:50:00,38.5,39.0,29.86,North,4,5.0,-999.0,100,-99.99,,,0.02,weatherlink.com 1.10,2013-02-20 04:50:00,
2013-02-20 07:06:00,38.2,38.0,29.87,NNE,24,7.0,-999.0,100,-99.99,,,0.02,weatherlink.com 1.10,2013-02-20 05:06:00,
2013-02-20 07:21:00,38.0,38.0,29.88,NNW,329,4.0,-999.0,100,-99.99,,,0.02,weatherlink.com 1.10,2013-02-20 05:21:00,
2013-02-20 07:36:00,37.9,38.0,29.89,North,11,3.0,-999.0,100,-99.99,,,0.02,weatherlink.com 1.10,2013-02-20 05:36:00,
2013-02-20 07:51:00,37.9,38.0,29.90,North,0,0.0,-999.0,100,-99.99,,,0.02,weatherlink.com 1.10,2013-02-20 05:51:00,
2013-02-20 08:06:00,38.0,38.0,29.91,North,3,1.0,-999.0,100,-99.99,,,0.02,weatherlink.com 1.10,2013-02-20 06:06:00,
2013-02-20 08:21:00,37.9,38.0,29.92,North,0,2.0,-999.0,100,-99.99,,,0.02,weatherlink.com 1.10,2013-02-20 06:21:00,
2013-02-20 08:36:00,38.0,38.0,29.93,NNW,330,5.0,-999.0,100,-99.99,,,0.02,weatherlink.com 1.10,2013-02-20 06:36:00,
2013-02-20 08:51:00,38.0,38.0,29.93,North,353,5.0,-999.0,100,-99.99,,,0.02,weatherlink.com 1.10,2013-02-20 06:51:00,
2013-02-20 09:06:00,37.9,38.0,29.94,WNW,295,4.0,-999.0,100,-99.99,,,0.02,weatherlink.com 1.10,2013-02-20 07:06:00,
2013-02-20 09:21:00,38.0,38.0,29.95,WSW,243,0.0,-999.0,100,-99.99,,,0.02,weatherlink.com 1.10,2013-02-20 07:21:00,
2013-02-20 09:36:00,37.9,38.0,29.95,NNW,343,8.0,-999.0,100,-99.99,,,0.02,weatherlink.com 1.10,2013-02-20 07:36:00,
2013-02-20 09:51:00,38.0,38.0,29.96,NNW,333,4.0,-999.0,100,-99.99,,,0.02,weatherlink.com 1.10,2013-02-20 07:51:00,
2013-02-20 10:06:00,38.2,38.0,29.96,North,8,6.0,-999.0,100,-99.99,,,0.02,weatherlink.com 1.10,2013-02-20 08:06:00,
2013-02-20 10:21:00,38.6,39.0,29.96,NNW,333,5.0,-999.0,100,-99.99,,,0.02,weatherlink.com 1.10,2013-02-20 08:21:00,
2013-02-20 10:37:00,38.9,39.0,29.97,North,357,12.0,-999.0,100,-99.99,,,0.02,weatherlink.com 1.10,2013-02-20 08:37:00,
2013-02-20 10:52:00,39.1,39.0,29.98,North,349,1.0,-999.0,100,-99.99,,,0.02,weatherlink.com 1.10,2013-02-20 08:52:00,
2013-02-20 11:07:00,39.3,39.0,29.99,North,8,0.0,-999.0,100,-99.99,,,0.02,weatherlink.com 1.10,2013-02-20 09:07:00,
2013-02-20 11:22:00,39.6,40.0,29.99,North,352,4.0,-999.0,100,-99.99,,,0.02,weatherlink.com 1.10,2013-02-20 09:22:00,
2013-02-20 11:37:00,40.1,40.0,30.00,North,353,4.0,-999.0,100,-99.99,,,0.02,weatherlink.com 1.10,2013-02-20 09:37:00,
2013-02-20 11:52:00,40.6,41.0,30.00,NNW,330,0.0,-999.0,100,-99.99,,,0.02,weatherlink.com 1.10,2013-02-20 09:52:00,
2013-02-20 12:07:00,41.1,41.0,30.00,NW,325,2.0,-999.0,100,-99.99,,,0.02,weatherlink.com 1.10,2013-02-20 10:07:00,
2013-02-20 12:22:00,41.5,42.0,30.01,NNE,17,5.0,-999.0,100,-99.99,,,0.02,weatherlink.com 1.10,2013-02-20 10:22:00,
2013-02-20 12:37:00,41.8,42.0,30.01,North,349,3.0,-999.0,100,-99.99,,,0.02,weatherlink.com 1.10,2013-02-20 10:37:00,
2013-02-20 12:52:00,42.2,42.0,30.01,NW,323,0.0,-999.0,100,-99.99,,,0.02,weatherlink.com 1.10,2013-02-20 10:52:00,
2013-02-20 13:07:00,42.3,42.0,30.02,NNE,17,2.0,-999.0,100,-99.99,,,0.02,weatherlink.com 1.10,2013-02-20 11:07:00,
2013-02-20 13:22:00,42.3,42.0,30.02,North,0,2.0,-999.0,100,-99.99,,,0.02,weatherlink.com 1.10,2013-02-20 11:22:00,
2013-02-20 13:37:00,41.3,41.0,30.02,North,1,2.0,-999.0,100,-99.99,,,0.02,weatherlink.com 1.10,2013-02-20 11:37:00,
2013-02-20 13:52:00,40.6,41.0,30.03,NNE,25,2.0,-999.0,100,-99.99,,,0.05,weatherlink.com 1.10,2013-02-20 11:52:00,
2013-02-20 14:08:00,40.5,41.0,30.04,NW,325,5.0,-999.0,100,-99.99,,,0.05,weatherlink.com 1.10,2013-02-20 12:08:00,
2013-02-20 14:23:00,40.8,41.0,30.04,NNE,27,1.0,-999.0,100,-99.99,,,0.05,weatherlink.com 1.10,2013-02-20 12:23:00,
2013-02-20 14:38:00,41.1,41.0,30.04,NNE,27,2.0,-999.0,100,-99.99,,,0.05,weatherlink.com 1.10,2013-02-20 12:38:00,
2013-02-20 14:53:00,41.3,41.0,30.04,NNE,21,1.0,-999.0,100,-99.99,,,0.05,weatherlink.com 1.10,2013-02-20 12:53:00,
2013-02-20 15:08:00,41.8,42.0,30.05,North,0,0.0,-999.0,100,-99.99,,,0.05,weatherlink.com 1.10,2013-02-20 13:08:00,
2013-02-20 15:23:00,41.9,42.0,30.05,North,359,2.0,-999.0,100,-99.99,,,0.05,weatherlink.com 1.10,2013-02-20 13:23:00,
2013-02-20 15:38:00,42.1,42.0,30.05,North,0,1.0,-999.0,100,-99.99,,,0.05,weatherlink.com 1.10,2013-02-20 13:38:00,
2013-02-20 15:53:00,42.2,42.0,30.05,ENE,66,0.0,-999.0,100,-99.99,,,0.05,weatherlink.com 1.10,2013-02-20 13:53:00,
2013-02-20 16:08:00,42.2,42.0,30.05,North,1,1.0,-999.0,100,-99.99,,,0.05,weatherlink.com 1.10,2013-02-20 14:08:00,
2013-02-20 16:23:00,42.1,42.0,30.05,NE,37,3.0,-999.0,100,-99.99,,,0.05,weatherlink.com 1.10,2013-02-20 14:23:00,
2013-02-20 16:38:00,42.1,42.0,30.05,NE,34,5.0,-999.0,100,-99.99,,,0.05,weatherlink.com 1.10,2013-02-20 14:38:00,
2013-02-20 16:53:00,42.2,42.0,30.05,West,268,0.0,-999.0,100,-99.99,,,0.05,weatherlink.com 1.10,2013-02-20 14:53:00,
2013-02-20 17:08:00,42.2,42.0,30.06,North,8,6.0,-999.0,100,-99.99,,,0.05,weatherlink.com 1.10,2013-02-20 15:08:00,
2013-02-20 17:24:00,41.9,42.0,30.06,NE,44,4.0,-999.0,100,-99.99,,,0.05,weatherlink.com 1.10,2013-02-20 15:24:00,
2013-02-20 17:39:00,41.6,42.0,30.07,NE,34,0.0,-999.0,100,-99.99,,,0.05,weatherlink.com 1.10,2013-02-20 15:39:00,
2013-02-20 17:54:00,41.3,41.0,30.07,East,95,2.0,-999.0,100,-99.99,,,0.05,weatherlink.com 1.10,2013-02-20 15:54:00,
2013-02-20 18:09:00,41.1,41.0,30.08,East,80,3.0,-999.0,100,-99.99,,,0.05,weatherlink.com 1.10,2013-02-20 16:09:00,
2013-02-20 18:24:00,40.9,41.0,30.08,ENE,72,2.0,-999.0,100,-99.99,,,0.05,weatherlink.com 1.10,2013-02-20 16:24:00,
2013-02-20 18:39:00,40.6,41.0,30.09,ESE,106,4.0,-999.0,100,-99.99,,,0.05,weatherlink.com 1.10,2013-02-20 16:39:00,
2013-02-20 18:54:00,40.6,41.0,30.10,East,86,0.0,-999.0,100,-99.99,,,0.05,weatherlink.com 1.10,2013-02-20 16:54:00,
2013-02-20 19:09:00,40.5,41.0,30.11,ESE,106,0.0,-999.0,100,-99.99,,,0.05,weatherlink.com 1.10,2013-02-20 17:09:00,
2013-02-20 19:24:00,40.5,41.0,30.11,East,82,0.0,-999.0,100,-99.99,,,0.05,weatherlink.com 1.10,2013-02-20 17:24:00,
2013-02-20 19:39:00,40.3,40.0,30.11,East,85,0.0,-999.0,100,-99.99,,,0.05,weatherlink.com 1.10,2013-02-20 17:39:00,
2013-02-20 19:54:00,40.5,41.0,30.12,ESE,109,0.0,-999.0,100,-99.99,,,0.05,weatherlink.com 1.10,2013-02-20 17:54:00,
2013-02-20 20:09:00,40.5,41.0,30.12,ESE,121,0.0,-999.0,100,-99.99,,,0.05,weatherlink.com 1.10,2013-02-20 18:09:00,
2013-02-20 20:24:00,40.2,40.0,30.12,NE,48,1.0,-999.0,100,-99.99,,,0.05,weatherlink.com 1.10,2013-02-20 18:24:00,
2013-02-20 20:39:00,40.1,40.0,30.11,NE,48,0.0,-999.0,100,-99.99,,,0.05,weatherlink.com 1.10,2013-02-20 18:39:00,
2013-02-20 20:55:00,39.8,40.0,30.11,NE,48,2.0,-999.0,100,-99.99,,,0.05,weatherlink.com 1.10,2013-02-20 18:55:00,
2013-02-20 21:10:00,39.5,40.0,30.12,NE,48,0.0,-999.0,100,-99.99,,,0.05,weatherlink.com 1.10,2013-02-20 19:10:00,
2013-02-20 21:25:00,39.3,39.0,30.12,ESE,120,2.0,-999.0,100,-99.99,,,0.05,weatherlink.com 1.10,2013-02-20 19:25:00,
2013-02-20 21:40:00,38.9,39.0,30.12,ESE,120,0.0,-999.0,100,-99.99,,,0.05,weatherlink.com 1.10,2013-02-20 19:40:00,
2013-02-20 21:55:00,38.8,39.0,30.12,ESE,116,0.0,-999.0,100,-99.99,,,0.05,weatherlink.com 1.10,2013-02-20 19:55:00,
2013-02-20 22:10:00,38.9,39.0,30.12,ESE,116,0.0,-999.0,100,-99.99,,,0.05,weatherlink.com 1.10,2013-02-20 20:10:00,
2013-02-20 22:25:00,38.8,39.0,30.12,ESE,112,0.0,-999.0,100,-99.99,,,0.05,weatherlink.com 1.10,2013-02-20 20:25:00,
2013-02-20 22:40:00,38.5,39.0,30.12,ESE,112,0.0,-999.0,100,-99.99,,,0.05,weatherlink.com 1.10,2013-02-20 20:40:00,
2013-02-20 22:55:00,38.2,38.0,30.12,ESE,113,0.0,-999.0,100,-99.99,,,0.05,weatherlink.com 1.10,2013-02-20 20:55:00,
2013-02-20 23:10:00,38.0,38.0,30.12,ESE,113,0.0,-999.0,100,-99.99,,,0.05,weatherlink.com 1.10,2013-02-20 21:10:00,
2013-02-20 23:25:00,38.2,38.0,30.12,ESE,116,0.0,-999.0,100,-99.99,,,0.05,weatherlink.com 1.10,2013-02-20 21:25:00,
2013-02-20 23:40:00,38.3,38.0,30.11,ESE,116,2.0,-999.0,100,-99.99,,,0.05,weatherlink.com 1.10,2013-02-20 21:40:00,
2013-02-20 23:55:00,38.2,38.0,30.11,ESE,116,0.0,-999.0,100,-99.99,,,0.00,weatherlink.com 1.10,2013-02-20 21:55:00,